| time (UTC) | temp F | wind direction | speed MPH | gust MPH | rain 1hr in | rain 24hr in | rain mn in | humidity % | barometer mb |
| 20260505125003 | 48 | 121 | 1.0 | 5.0 | 0.00 | 0.00 | 0.00 | 70 | 1003.7 |
| 20260505124524 | 47 | 59 | 1.0 | 5.0 | 0.00 | 0.00 | 0.00 | 70 | 1003.4 |
| 20260505124003 | 47 | 98 | 2.0 | 5.0 | 0.00 | 0.00 | 0.00 | 71 | 1003.4 |
| 20260505123524 | 47 | 98 | 0.0 | 2.0 | 0.00 | 0.00 | 0.00 | 72 | 1003.1 |
| 20260505122502 | 47 | 90 | 1.0 | 3.0 | 0.00 | 0.00 | 0.00 | 72 | 1003.2 |
| 20260505122024 | 47 | 96 | 1.0 | 3.0 | 0.00 | 0.00 | 0.00 | 72 | 1003.1 |
| 20260505121524 | 47 | 84 | 1.0 | 3.0 | 0.00 | 0.00 | 0.00 | 71 | 1003.0 |
| 20260505121002 | 47 | 87 | 1.0 | 3.0 | 0.00 | 0.00 | 0.00 | 71 | 1002.7 |
| 20260505120503 | 47 | 92 | 1.0 | 3.0 | 0.00 | 0.00 | 0.00 | 70 | 1002.7 |
| 20260505120004 | 47 | 90 | 1.0 | 3.0 | 0.00 | 0.00 | 0.00 | 69 | 1002.5 |
| 20260505115503 | 47 | 92 | 0.0 | 2.0 | 0.00 | 0.00 | 0.00 | 69 | 1002.6 |
| 20260505115003 | 47 | 92 | 0.0 | 2.0 | 0.00 | 0.00 | 0.00 | 69 | 1002.3 |
| 20260505114503 | 47 | 93 | 1.0 | 2.0 | 0.00 | 0.00 | 0.00 | 68 | 1002.4 |
| 20260505114003 | 48 | 93 | 1.0 | 2.0 | 0.00 | 0.00 | 0.00 | 68 | 1002.2 |
| 20260505113503 | 47 | 92 | 1.0 | 2.0 | 0.00 | 0.00 | 0.00 | 68 | 1002.4 |
| 20260505113045 | 47 | 91 | 0.0 | 3.0 | 0.00 | 0.00 | 0.00 | 69 | 1002.4 |
| 20260505112503 | 47 | 91 | 0.0 | 3.0 | 0.00 | 0.00 | 0.00 | 69 | 1002.3 |
| 20260505112024 | 47 | 72 | 1.0 | 2.0 | 0.00 | 0.00 | 0.00 | 70 | 1002.0 |
| 20260505111524 | 46 | 60 | 0.0 | 2.0 | 0.00 | 0.00 | 0.00 | 71 | 1002.0 |
| 20260505111003 | 46 | 55 | 1.0 | 2.0 | 0.00 | 0.00 | 0.00 | 71 | 1001.9 |
| 20260505110502 | 46 | 53 | 1.0 | 2.0 | 0.00 | 0.00 | 0.00 | 71 | 1001.9 |
| 20260505102002 | 48 | 28 | 0.0 | 2.0 | 0.00 | 0.00 | 0.00 | 68 | 1002.4 |
| 20260505101503 | 48 | 28 | 0.0 | 1.0 | 0.00 | 0.00 | 0.00 | 68 | 1002.3 |
| 20260505101002 | 48 | 28 | 0.0 | 1.0 | 0.00 | 0.00 | 0.00 | 68 | 1002.4 |
| 20260505100503 | 49 | 28 | 0.0 | 0.0 | 0.00 | 0.00 | 0.00 | 68 | 1002.4 |
| 20260505100023 | 49 | 28 | 0.0 | 0.0 | 0.00 | 0.00 | 0.00 | 68 | 1002.3 |
| 20260505095503 | 49 | 28 | 0.0 | 0.0 | 0.00 | 0.00 | 0.00 | 68 | 1002.2 |
| 20260505095002 | 49 | 28 | 0.0 | 0.0 | 0.00 | 0.00 | 0.00 | 67 | 1002.2 |
| 20260505094503 | 49 | 28 | 0.0 | 0.0 | 0.00 | 0.00 | 0.00 | 67 | 1002.2 |
| 20260505094003 | 50 | 28 | 0.0 | 0.0 | 0.00 | 0.00 | 0.00 | 67 | 1002.4 |
| 20260505093503 | 50 | 28 | 0.0 | 0.0 | 0.00 | 0.00 | 0.00 | 67 | 1002.5 |
| 20260505093003 | 50 | 28 | 0.0 | 0.0 | 0.00 | 0.00 | 0.00 | 67 | 1002.5 |
| 20260505092503 | 50 | 28 | 0.0 | 0.0 | 0.00 | 0.00 | 0.00 | 66 | 1002.4 |
| 20260505092003 | 50 | 28 | 0.0 | 0.0 | 0.00 | 0.00 | 0.00 | 66 | 1002.3 |
| 20260505091502 | 51 | 28 | 0.0 | 0.0 | 0.00 | 0.00 | 0.00 | 66 | 1002.4 |
| 20260505091003 | 51 | 28 | 0.0 | 0.0 | 0.00 | 0.00 | 0.00 | 66 | 1002.4 |
| 20260505090503 | 51 | 28 | 0.0 | 0.0 | 0.00 | 0.00 | 0.00 | 66 | 1002.2 |
| 20260505090002 | 51 | 28 | 0.0 | 0.0 | 0.00 | 0.00 | 0.00 | 65 | 1002.3 |
| 20260505085503 | 51 | 28 | 0.0 | 0.0 | 0.00 | 0.00 | 0.00 | 65 | 1002.3 |
| 20260505085003 | 52 | 28 | 0.0 | 0.0 | 0.00 | 0.00 | 0.00 | 65 | 1002.4 |
| 20260505084503 | 52 | 28 | 0.0 | 0.0 | 0.00 | 0.00 | 0.00 | 65 | 1002.3 |
| 20260505084003 | 52 | 28 | 0.0 | 0.0 | 0.00 | 0.00 | 0.00 | 65 | 1002.3 |
| 20260505083503 | 52 | 28 | 0.0 | 1.0 | 0.00 | 0.00 | 0.00 | 65 | 1002.4 |
| 20260505082503 | 52 | 27 | 0.0 | 1.0 | 0.00 | 0.00 | 0.00 | 63 | 1002.2 |
| 20260505082003 | 52 | 28 | 0.0 | 3.0 | 0.00 | 0.00 | 0.00 | 63 | 1002.4 |
| 20260505081524 | 53 | 28 | 0.0 | 3.0 | 0.00 | 0.00 | 0.00 | 63 | 1002.4 |
| 20260505081003 | 53 | 29 | 0.0 | 3.0 | 0.00 | 0.00 | 0.00 | 62 | 1002.3 |
| 20260505080503 | 53 | 30 | 0.0 | 2.0 | 0.00 | 0.00 | 0.00 | 62 | 1002.4 |
| 20260505080002 | 53 | 29 | 0.0 | 2.0 | 0.00 | 0.00 | 0.00 | 62 | 1002.3 |
| 20260505075503 | 53 | 29 | 1.0 | 2.0 | 0.00 | 0.00 | 0.00 | 62 | 1002.2 |
| 20260505075002 | 53 | 29 | 0.0 | 3.0 | 0.00 | 0.00 | 0.00 | 62 | 1002.3 |
| 20260505074524 | 54 | 30 | 0.0 | 4.0 | 0.00 | 0.00 | 0.00 | 62 | 1002.3 |
| 20260505074003 | 54 | 30 | 0.0 | 4.0 | 0.00 | 0.00 | 0.00 | 62 | 1002.3 |
| 20260505073503 | 54 | 32 | 1.0 | 2.0 | 0.00 | 0.00 | 0.00 | 62 | 1002.3 |
| 20260505073003 | 54 | 32 | 0.0 | 2.0 | 0.00 | 0.00 | 0.00 | 61 | 1002.5 |
| 20260505072524 | 54 | 32 | 1.0 | 2.0 | 0.00 | 0.00 | 0.00 | 61 | 1002.5 |
| 20260505072003 | 54 | 32 | 0.0 | 0.0 | 0.00 | 0.00 | 0.00 | 61 | 1002.3 |
| 20260505071523 | 54 | 32 | 0.0 | 4.0 | 0.00 | 0.00 | 0.00 | 60 | 1002.0 |
| 20260505071024 | 54 | 32 | 0.0 | 4.0 | 0.00 | 0.00 | 0.00 | 60 | 1001.9 |
| 20260505070524 | 55 | 32 | 2.0 | 5.0 | 0.00 | 0.00 | 0.00 | 60 | 1001.9 |
| 20260505070002 | 55 | 28 | 1.0 | 6.0 | 0.00 | 0.00 | 0.00 | 59 | 1001.8 |
| 20260505065503 | 55 | 23 | 3.0 | 8.0 | 0.00 | 0.00 | 0.00 | 59 | 1001.5 |
| 20260505065003 | 55 | 24 | 2.0 | 12.0 | 0.00 | 0.00 | 0.00 | 58 | 1001.5 |
| 20260505064502 | 55 | 21 | 6.0 | 12.0 | 0.00 | 0.00 | 0.00 | 58 | 1001.4 |
| 20260505064003 | 55 | 22 | 7.0 | 11.0 | 0.00 | 0.00 | 0.00 | 58 | 1001.2 |
| 20260505063503 | 55 | 24 | 2.0 | 11.0 | 0.00 | 0.00 | 0.00 | 58 | 1001.1 |
| 20260505063024 | 55 | 35 | 3.0 | 9.0 | 0.00 | 0.00 | 0.00 | 58 | 1001.4 |
| 20260505062502 | 55 | 26 | 2.0 | 15.0 | 0.00 | 0.00 | 0.00 | 57 | 1001.9 |
| 20260505062003 | 55 | 24 | 5.0 | 15.0 | 0.00 | 0.00 | 0.00 | 58 | 1001.7 |
| 20260505061502 | 55 | 21 | 10.0 | 15.0 | 0.00 | 0.00 | 0.00 | 58 | 1001.4 |
| 20260505061003 | 56 | 18 | 4.0 | 10.0 | 0.00 | 0.00 | 0.00 | 57 | 1001.4 |
| 20260505060503 | 56 | 18 | 5.0 | 15.0 | 0.00 | 0.00 | 0.00 | 57 | 1001.7 |
| 20260505060023 | 56 | 13 | 9.0 | 21.0 | 0.00 | 0.00 | 0.00 | 55 | 1001.7 |
| 20260505055503 | 56 | 16 | 11.0 | 21.0 | 0.00 | 0.00 | 0.00 | 55 | 1001.6 |
| 20260505055003 | 56 | 27 | 4.0 | 11.0 | 0.00 | 0.00 | 0.00 | 55 | 1001.5 |
| 20260505054503 | 56 | 20 | 6.0 | 13.0 | 0.00 | 0.00 | 0.00 | 55 | 1001.6 |
| 20260505054003 | 56 | 13 | 7.0 | 13.0 | 0.00 | 0.00 | 0.00 | 55 | 1001.6 |
| 20260505053523 | 56 | 23 | 5.0 | 12.0 | 0.00 | 0.00 | 0.00 | 55 | 1001.6 |
| 20260505053003 | 56 | 21 | 7.0 | 11.0 | 0.00 | 0.00 | 0.00 | 55 | 1001.4 |
| 20260505052502 | 56 | 14 | 5.0 | 14.0 | 0.00 | 0.00 | 0.00 | 55 | 1001.3 |
| 20260505052024 | 56 | 13 | 9.0 | 14.0 | 0.00 | 0.00 | 0.00 | 54 | 1001.2 |
| 20260505051502 | 56 | 28 | 4.0 | 10.0 | 0.00 | 0.00 | 0.00 | 55 | 1001.3 |
| 20260505051003 | 56 | 22 | 4.0 | 12.0 | 0.00 | 0.00 | 0.00 | 56 | 1001.3 |
| 20260505050502 | 56 | 15 | 5.0 | 12.0 | 0.00 | 0.00 | 0.00 | 55 | 1001.4 |
| 20260505041024 | 57 | 20 | 4.0 | 22.0 | 0.00 | 0.00 | 0.00 | 54 | 1000.8 |
| 20260505040503 | 57 | 23 | 10.0 | 23.0 | 0.00 | 0.00 | 0.00 | 53 | 1000.5 |
| 20260505035524 | 58 | 12 | 15.0 | 26.0 | 0.00 | 0.00 | 0.00 | 52 | 1000.3 |
| 20260505035002 | 58 | 26 | 3.0 | 23.0 | 0.00 | 0.00 | 0.00 | 52 | 1000.3 |
| 20260505034503 | 57 | 19 | 2.0 | 29.0 | 0.00 | 0.00 | 0.00 | 52 | 1000.0 |
| 20260505034003 | 57 | 15 | 14.0 | 29.0 | 0.00 | 0.00 | 0.00 | 53 | 999.9 |
| 20260505033502 | 57 | 20 | 12.0 | 23.0 | 0.00 | 0.00 | 0.00 | 54 | 999.7 |
| 20260505033003 | 57 | 16 | 12.0 | 23.0 | 0.00 | 0.00 | 0.00 | 55 | 999.3 |
| 20260505032502 | 57 | 8 | 7.0 | 29.0 | 0.00 | 0.00 | 0.00 | 55 | 999.1 |
| 20260505032003 | 57 | 13 | 16.0 | 29.0 | 0.00 | 0.00 | 0.00 | 54 | 998.7 |
| 20260505031502 | 57 | 11 | 17.0 | 28.0 | 0.00 | 0.00 | 0.00 | 55 | 998.4 |
| 20260505031024 | 57 | 12 | 17.0 | 28.0 | 0.00 | 0.00 | 0.00 | 55 | 998.5 |
| 20260505030502 | 57 | 18 | 12.0 | 28.0 | 0.00 | 0.00 | 0.00 | 55 | 998.5 |
| 20260505030003 | 57 | 17 | 16.0 | 32.0 | 0.00 | 0.00 | 0.00 | 54 | 998.5 |
| 20260505025503 | 57 | 12 | 19.0 | 32.0 | 0.00 | 0.00 | 0.00 | 55 | 998.2 |
| 20260505025003 | 57 | 20 | 21.0 | 30.0 | 0.00 | 0.00 | 0.00 | 55 | 998.0 |
| 20260505024524 | 57 | 13 | 20.0 | 30.0 | 0.00 | 0.00 | 0.00 | 56 | 998.2 |
| 20260505024002 | 58 | 14 | 20.0 | 30.0 | 0.00 | 0.00 | 0.00 | 53 | 998.1 |
| 20260505023503 | 59 | 16 | 21.0 | 30.0 | 0.00 | 0.00 | 0.00 | 50 | 997.9 |
| 20260505023003 | 59 | 19 | 18.0 | 34.0 | 0.00 | 0.00 | 0.00 | 49 | 997.7 |
| 20260505022503 | 59 | 17 | 23.0 | 34.0 | 0.00 | 0.00 | 0.00 | 49 | 997.2 |
| 20260505022002 | 59 | 16 | 24.0 | 33.0 | 0.00 | 0.00 | 0.00 | 50 | 996.8 |
| 20260505021524 | 59 | 12 | 24.0 | 33.0 | 0.00 | 0.00 | 0.00 | 50 | 996.9 |
| 20260505021003 | 59 | 11 | 19.0 | 28.0 | 0.00 | 0.00 | 0.00 | 52 | 996.8 |
| 20260505020503 | 59 | 17 | 18.0 | 28.0 | 0.00 | 0.00 | 0.00 | 52 | 996.9 |
| 20260505020045 | 59 | 14 | 18.0 | 28.0 | 0.00 | 0.00 | 0.00 | 51 | 997.0 |
| 20260505015503 | 60 | 19 | 15.0 | 32.0 | 0.00 | 0.00 | 0.00 | 50 | 997.2 |
| 20260505015002 | 61 | 13 | 18.0 | 32.0 | 0.00 | 0.00 | 0.00 | 47 | 996.8 |
| 20260505014503 | 63 | 15 | 21.0 | 32.0 | 0.00 | 0.00 | 0.00 | 42 | 996.6 |
| 20260505014003 | 64 | 17 | 20.0 | 29.0 | 0.00 | 0.00 | 0.00 | 40 | 996.2 |
| 20260505013503 | 65 | 18 | 18.0 | 31.0 | 0.00 | 0.00 | 0.00 | 39 | 996.3 |
| 20260505013002 | 66 | 17 | 19.0 | 31.0 | 0.00 | 0.00 | 0.00 | 33 | 995.9 |
| 20260505012503 | 66 | 23 | 17.0 | 27.0 | 0.00 | 0.00 | 0.00 | 33 | 995.8 |
| 20260505012002 | 66 | 17 | 14.0 | 24.0 | 0.00 | 0.00 | 0.00 | 33 | 996.0 |
| 20260505011503 | 66 | 12 | 17.0 | 24.0 | 0.00 | 0.00 | 0.00 | 33 | 995.9 |
| 20260505011003 | 66 | 28 | 12.0 | 21.0 | 0.00 | 0.00 | 0.00 | 33 | 995.9 |
| 20260505010503 | 67 | 19 | 11.0 | 18.0 | 0.00 | 0.00 | 0.00 | 32 | 995.8 |
| 20260505010004 | 67 | 22 | 11.0 | 22.0 | 0.00 | 0.00 | 0.00 | 31 | 995.7 |
| 20260505005523 | 68 | 28 | 13.0 | 22.0 | 0.00 | 0.00 | 0.00 | 30 | 995.5 |
| 20260505005003 | 68 | 25 | 13.0 | 20.0 | 0.00 | 0.00 | 0.00 | 28 | 995.5 |
| 20260505004502 | 69 | 27 | 8.0 | 15.0 | 0.00 | 0.00 | 0.00 | 27 | 995.6 |
| 20260505004003 | 69 | 18 | 11.0 | 17.0 | 0.00 | 0.00 | 0.00 | 27 | 995.6 |
| 20260505003502 | 69 | 25 | 8.0 | 17.0 | 0.00 | 0.00 | 0.00 | 27 | 995.4 |
| 20260505003003 | 69 | 21 | 9.0 | 19.0 | 0.00 | 0.00 | 0.00 | 27 | 995.5 |
| 20260505002503 | 70 | 18 | 9.0 | 19.0 | 0.00 | 0.00 | 0.00 | 26 | 995.4 |
| 20260505002003 | 70 | 27 | 8.0 | 18.0 | 0.00 | 0.00 | 0.00 | 26 | 995.4 |
| 20260505001503 | 70 | 42 | 6.0 | 18.0 | 0.00 | 0.00 | 0.00 | 25 | 995.7 |
| 20260505001002 | 70 | 21 | 12.0 | 17.0 | 0.00 | 0.00 | 0.00 | 25 | 995.5 |
| 20260505000503 | 71 | 31 | 8.0 | 17.0 | 0.00 | 0.00 | 0.00 | 25 | 995.5 |
| 20260505000003 | 72 | 22 | 4.0 | 11.0 | 0.00 | 0.00 | 0.00 | 24 | 995.6 |
| 20260504235502 | 73 | 19 | 3.0 | 11.0 | 0.00 | 0.00 | 0.00 | 23 | 995.8 |
| 20260504235003 | 74 | 6 | 5.0 | 12.0 | 0.00 | 0.00 | 0.00 | 22 | 995.7 |
| 20260504234523 | 74 | 282 | 6.0 | 16.0 | 0.00 | 0.00 | 0.00 | 19 | 995.6 |
| 20260504234003 | 74 | 265 | 9.0 | 16.0 | 0.00 | 0.00 | 0.00 | 19 | 995.5 |
| 20260504233503 | 75 | 266 | 9.0 | 16.0 | 0.00 | 0.00 | 0.00 | 19 | 995.5 |
| 20260504233003 | 75 | 259 | 11.0 | 18.0 | 0.00 | 0.00 | 0.00 | 19 | 995.6 |
| 20260504232503 | 75 | 260 | 13.0 | 18.0 | 0.00 | 0.00 | 0.00 | 19 | 995.6 |
| 20260504232002 | 75 | 260 | 13.0 | 18.0 | 0.00 | 0.00 | 0.00 | 18 | 995.4 |
| 20260504231503 | 75 | 260 | 9.0 | 20.0 | 0.00 | 0.00 | 0.00 | 19 | 995.5 |
| 20260504231002 | 75 | 253 | 12.0 | 20.0 | 0.00 | 0.00 | 0.00 | 19 | 995.3 |
| 20260504230503 | 75 | 249 | 14.0 | 21.0 | 0.00 | 0.00 | 0.00 | 19 | 995.2 |
| 20260504230024 | 75 | 247 | 11.0 | 21.0 | 0.00 | 0.00 | 0.00 | 19 | 995.3 |
| 20260504225503 | 75 | 261 | 11.0 | 22.0 | 0.00 | 0.00 | 0.00 | 19 | 995.2 |
| 20260504225002 | 75 | 250 | 16.0 | 22.0 | 0.00 | 0.00 | 0.00 | 18 | 995.2 |
| 20260504224545 | 75 | 245 | 16.0 | 26.0 | 0.00 | 0.00 | 0.00 | 18 | 995.2 |
| 20260504224002 | 75 | 243 | 15.0 | 26.0 | 0.00 | 0.00 | 0.00 | 18 | 995.3 |
| 20260504223503 | 75 | 263 | 10.0 | 21.0 | 0.00 | 0.00 | 0.00 | 18 | 995.2 |
| 20260504223002 | 75 | 251 | 12.0 | 23.0 | 0.00 | 0.00 | 0.00 | 18 | 995.2 |
| 20260504222503 | 75 | 249 | 15.0 | 23.0 | 0.00 | 0.00 | 0.00 | 18 | 995.2 |
| 20260504222003 | 75 | 250 | 17.0 | 29.0 | 0.00 | 0.00 | 0.00 | 18 | 995.2 |
| 20260504221503 | 75 | 261 | 18.0 | 29.0 | 0.00 | 0.00 | 0.00 | 18 | 995.3 |
| 20260504221002 | 75 | 253 | 20.0 | 27.0 | 0.00 | 0.00 | 0.00 | 18 | 995.3 |
| 20260504220545 | 76 | 237 | 18.0 | 32.0 | 0.00 | 0.00 | 0.00 | 18 | 995.4 |
| 20260504220002 | 76 | 244 | 19.0 | 32.0 | 0.00 | 0.00 | 0.00 | 18 | 995.6 |
| 20260504215503 | 76 | 252 | 17.0 | 27.0 | 0.00 | 0.00 | 0.00 | 18 | 995.7 |
| 20260504215002 | 76 | 252 | 13.0 | 26.0 | 0.00 | 0.00 | 0.00 | 18 | 995.7 |
| 20260504214503 | 76 | 232 | 14.0 | 26.0 | 0.00 | 0.00 | 0.00 | 18 | 995.7 |
| 20260504214003 | 76 | 243 | 16.0 | 28.0 | 0.00 | 0.00 | 0.00 | 18 | 996.0 |
| 20260504213503 | 75 | 230 | 19.0 | 28.0 | 0.00 | 0.00 | 0.00 | 19 | 996.0 |
| 20260504213002 | 75 | 241 | 16.0 | 29.0 | 0.00 | 0.00 | 0.00 | 19 | 996.0 |
| 20260504212503 | 75 | 258 | 18.0 | 29.0 | 0.00 | 0.00 | 0.00 | 19 | 996.3 |
| 20260504212002 | 76 | 232 | 18.0 | 28.0 | 0.00 | 0.00 | 0.00 | 20 | 996.3 |
| 20260504211002 | 76 | 228 | 18.0 | 27.0 | 0.00 | 0.00 | 0.00 | 20 | 996.2 |
| 20260504210503 | 75 | 239 | 21.0 | 30.0 | 0.00 | 0.00 | 0.00 | 21 | 996.4 |
| 20260504210023 | 75 | 254 | 17.0 | 32.0 | 0.00 | 0.00 | 0.00 | 20 | 996.4 |
| 20260504205503 | 75 | 242 | 26.0 | 36.0 | 0.00 | 0.00 | 0.00 | 19 | 996.5 |
| 20260504205002 | 76 | 246 | 23.0 | 36.0 | 0.00 | 0.00 | 0.00 | 21 | 996.5 |
| 20260504204503 | 76 | 235 | 19.0 | 35.0 | 0.00 | 0.00 | 0.00 | 22 | 996.5 |
| 20260504204002 | 75 | 250 | 20.0 | 35.0 | 0.00 | 0.00 | 0.00 | 21 | 996.7 |
| 20260504203503 | 75 | 260 | 18.0 | 33.0 | 0.00 | 0.00 | 0.00 | 20 | 996.8 |
| 20260504203003 | 75 | 260 | 25.0 | 33.0 | 0.00 | 0.00 | 0.00 | 20 | 996.7 |
| 20260504202503 | 76 | 257 | 24.0 | 34.0 | 0.00 | 0.00 | 0.00 | 19 | 996.8 |
| 20260504202003 | 76 | 236 | 24.0 | 38.0 | 0.00 | 0.00 | 0.00 | 19 | 996.8 |
| 20260504201503 | 76 | 249 | 23.0 | 38.0 | 0.00 | 0.00 | 0.00 | 19 | 996.9 |
| 20260504201003 | 76 | 250 | 28.0 | 35.0 | 0.00 | 0.00 | 0.00 | 20 | 996.8 |
| 20260504200523 | 76 | 241 | 24.0 | 34.0 | 0.00 | 0.00 | 0.00 | 20 | 996.9 |
| 20260504200003 | 77 | 249 | 25.0 | 34.0 | 0.00 | 0.00 | 0.00 | 21 | 996.9 |
| 20260504195502 | 76 | 235 | 19.0 | 32.0 | 0.00 | 0.00 | 0.00 | 21 | 996.7 |
| 20260504195003 | 77 | 247 | 25.0 | 34.0 | 0.00 | 0.00 | 0.00 | 20 | 996.8 |
| 20260504194503 | 77 | 256 | 23.0 | 34.0 | 0.00 | 0.00 | 0.00 | 19 | 996.9 |
| 20260504194003 | 78 | 256 | 18.0 | 26.0 | 0.00 | 0.00 | 0.00 | 17 | 996.9 |
| 20260504193503 | 77 | 253 | 8.0 | 16.0 | 0.00 | 0.00 | 0.00 | 17 | 996.8 |
| 20260504193002 | 77 | 285 | 9.0 | 25.0 | 0.00 | 0.00 | 0.00 | 16 | 997.1 |
| 20260504192503 | 78 | 263 | 14.0 | 25.0 | 0.00 | 0.00 | 0.00 | 16 | 997.3 |
| 20260504192002 | 78 | 281 | 8.0 | 16.0 | 0.00 | 0.00 | 0.00 | 16 | 997.3 |
| 20260504191524 | 77 | 270 | 5.0 | 10.0 | 0.00 | 0.00 | 0.00 | 17 | 997.2 |
| 20260504191003 | 77 | 332 | 4.0 | 18.0 | 0.00 | 0.00 | 0.00 | 16 | 997.3 |
| 20260504190503 | 77 | 248 | 10.0 | 22.0 | 0.00 | 0.00 | 0.00 | 16 | 997.3 |
| 20260504190024 | 77 | 253 | 17.0 | 23.0 | 0.00 | 0.00 | 0.00 | 16 | 997.3 |
| 20260504185503 | 77 | 268 | 7.0 | 23.0 | 0.00 | 0.00 | 0.00 | 16 | 997.4 |
| 20260504184503 | 76 | 252 | 11.0 | 22.0 | 0.00 | 0.00 | 0.00 | 17 | 997.6 |
| 20260504184002 | 76 | 254 | 11.0 | 19.0 | 0.00 | 0.00 | 0.00 | 16 | 997.7 |
| 20260504183503 | 76 | 260 | 12.0 | 20.0 | 0.00 | 0.00 | 0.00 | 16 | 997.7 |
| 20260504183002 | 75 | 273 | 11.0 | 23.0 | 0.00 | 0.00 | 0.00 | 16 | 997.8 |
| 20260504182503 | 75 | 258 | 15.0 | 23.0 | 0.00 | 0.00 | 0.00 | 16 | 997.8 |
| 20260504182002 | 75 | 251 | 15.0 | 21.0 | 0.00 | 0.00 | 0.00 | 16 | 997.9 |
| 20260504181524 | 76 | 271 | 5.0 | 18.0 | 0.00 | 0.00 | 0.00 | 16 | 998.1 |
| 20260504181002 | 76 | 306 | 10.0 | 20.0 | 0.00 | 0.00 | 0.00 | 16 | 998.2 |
| 20260504180524 | 76 | 287 | 11.0 | 27.0 | 0.00 | 0.00 | 0.00 | 16 | 998.1 |
| 20260504180002 | 76 | 259 | 11.0 | 27.0 | 0.00 | 0.00 | 0.00 | 17 | 998.2 |
| 20260504175545 | 75 | 298 | 5.0 | 25.0 | 0.00 | 0.00 | 0.00 | 17 | 998.2 |
| 20260504175024 | 75 | 263 | 13.0 | 25.0 | 0.00 | 0.00 | 0.00 | 17 | 998.3 |
| 20260504174502 | 75 | 265 | 14.0 | 25.0 | 0.00 | 0.00 | 0.00 | 18 | 998.3 |
| 20260504174003 | 74 | 255 | 5.0 | 19.0 | 0.00 | 0.00 | 0.00 | 19 | 998.4 |
| 20260504173503 | 74 | 283 | 10.0 | 19.0 | 0.00 | 0.00 | 0.00 | 19 | 998.6 |
| 20260504173003 | 74 | 262 | 9.0 | 18.0 | 0.00 | 0.00 | 0.00 | 21 | 998.6 |
| 20260504172502 | 74 | 244 | 6.0 | 20.0 | 0.00 | 0.00 | 0.00 | 22 | 998.7 |
| 20260504172003 | 74 | 248 | 13.0 | 20.0 | 0.00 | 0.00 | 0.00 | 23 | 998.8 |
| 20260504171503 | 73 | 269 | 7.0 | 20.0 | 0.00 | 0.00 | 0.00 | 23 | 999.0 |
| 20260504171003 | 73 | 272 | 10.0 | 20.0 | 0.00 | 0.00 | 0.00 | 22 | 999.3 |
| 20260504170503 | 72 | 296 | 8.0 | 25.0 | 0.00 | 0.00 | 0.00 | 22 | 999.3 |
| 20260504151045 | 67 | 259 | 21.0 | 35.0 | 0.00 | 0.00 | 0.00 | 28 | 1000.6 |
| 20260504150503 | 67 | 269 | 24.0 | 35.0 | 0.00 | 0.00 | 0.00 | 28 | 1000.7 |
| 20260504141002 | 64 | 263 | 15.0 | 26.0 | 0.00 | 0.00 | 0.00 | 34 | 1000.5 |
| 20260504140503 | 64 | 263 | 16.0 | 26.0 | 0.00 | 0.00 | 0.00 | 35 | 1000.6 |
| 20260504130503 | 59 | 280 | 5.0 | 9.0 | 0.00 | 0.00 | 0.00 | 39 | 1000.6 |